www.pogodaiklimat.ru

Погода и климат >> Архив погоды >> Россия >> Якутия >> Себян-Кюель


ПОГОДА в Себян-Кюеле

  • Прогноз погоды в Себян-Кюеле
  • Монитор погоды в Себян-Кюеле
  • Климат города

АРХИВ ПОГОДЫ в Себян-Кюеле

Время (UTC), дата Ветер
(напр.,м/с)
 
Видим.   Явления Облачность Т
(С)
Тd
(С)
f
(%)
Тe
(С)
Тes
(С)
Комфортность P
(гПа)
Po
(гПа)
Тmin
(С)
Tmax
(С)
R
(мм)
S
(см)
15 14.02 З 2 50 км ясно -34.2 -35.3 90 -42 -42 опасность
обморожения
1030.9 923.6
18 14.02 ЮЗ 1 50 км ясно -33.8 -35.0 89 -38 -38 опасность
обморожения
1030.4 923.2
21 14.02 штиль 0 50 км ясно -38.0 -40.3 79 -38 -38 опасность
обморожения
1031.3 922.3
00 15.02 СЗ 2 50 км 8/0
[Ci fib]
-36.2 -37.8 85 -45 -45 опасность
обморожения
1030.4 922.1 -40.0 30
03 15.02 штиль 0 50 км 5/0
[Ci fib]
-31.6 -33.2 86 -32 -30 опасность
обморожения
1027.3 921.2
06 15.02 Ю 1 50 км 3/0
[Ci fib]
-30.4 -33.4 75 -35 -34 опасность
обморожения
1025.8 920.4
09 15.02 штиль 0 50 км 3/0
[Ci fib]
-35.5 -37.1 85 -36 -36 опасность
обморожения
1029.2 921.3
12 15.02 СЗ 2 50 км 5/0
[Ci fib]
-36.7 -38.5 83 -45 -45 опасность
обморожения
1029.8 921.3 -24.6
15 15.02 З 1 50 км 4/0
[Ci fib]
-38.2 -39.7 86 -43 -43 опасность
обморожения
1030.4 921.2
18 15.02 З 2 50 км ясно -40.9 -43.1 79 -50 -50 опасность
обморожения
1031.3 920.8
21 15.02 СЗ 1 50 км ясно -39.5 -41.6 80 -45 -45 опасность
обморожения
1030.5 920.7
00 16.02 З 1 50 км ясно -42.0 -44.3 78 -47 -47 опасность
обморожения
1031.5 920.7 -42.9 30
03 16.02 штиль 0 50 км ясно -35.0 -37.4 79 -35 -34 опасность
обморожения
1027.8 920.4
06 16.02 штиль 0 50 км ясно -33.4 -35.6 80 -33 -33 опасность
обморожения
1026.2 919.7
09 16.02 штиль 0 50 км ясно -38.0 -40.3 79 -38 -38 опасность
обморожения
1029.4 920.6
12 16.02 штиль 0 50 км ясно -41.0 -43.1 80 -41 -41 опасность
обморожения
1031.1 920.8 -33.4
15 16.02 З 1 50 км ясно -42.4 -44.3 81 -48 -48 опасность
обморожения
1031.4 920.4
18 16.02 СЗ 1 50 км ясно -43.1 -44.9 82 -49 -49 опасность
обморожения
1031.5 920.2
21 16.02 СЗ 2 50 км ясно -42.6 -44.9 78 -52 -52 опасность
обморожения
1030.5 919.5
00 17.02 СЗ 2 50 км 3/0
[Ci fib]
-42.2 -44.3 80 -52 -52 опасность
обморожения
1030.1 919.2 -44.9 30
03 17.02 З 2 50 км 3/0
[Ci fib]
-34.0 -36.1 81 -42 -41 опасность
обморожения
1025.2 918.3
06 17.02 З 2 50 км 3/0
[Ci fib]
-30.6 -33.6 75 -38 -38 опасность
обморожения
1022.6 917.4
09 17.02 З 1 50 км 3/0
[Ci fib]
-37.2 -39.5 79 -42 -42 опасность
обморожения
1026.1 917.8
12 17.02 З 1 10 км слабый снег 10/0 2000 м
[Ac trans Ci fib]
-39.6 -41.6 81 -45 -45 опасность
обморожения
1027.3 917.8 -28.8 0.0
15 17.02 З 2 10 км слабый снег 10/0
[Ac trans Cs]
-36.1 -38.4 79 -45 -45 опасность
обморожения
1024.7 917.0
18 17.02 З 2 50 км {снег} 10/0 2000 м
[Ac trans Cs]
-35.5 -37.7 80 -44 -44 опасность
обморожения
1023.6 916.3
21 17.02 СЗ 2 50 км 8/0
[Ac trans Ci fib]
-36.5 -38.7 80 -45 -45 опасность
обморожения
1023.3 915.6
00 18.02 З 2 50 км 8/0 2000 м
[Ac trans]
-36.0 -37.8 83 -44 -44 опасность
обморожения
1022.3 915.0 -41.0 0.0 30
03 18.02 З 2 50 км 8/0
[Cs]
-28.4 -31.5 75 -36 -35 опасность
обморожения
1017.7 914.0
06 18.02 ЮЗ 2 50 км 10/0
[Cs]
-26.5 -29.7 74 -33 -33 опасность
обморожения
1016.2 913.4
09 18.02 ЮЗ 2 50 км 10/0
[As op Cs]
-30.0 -32.3 80 -37 -37 опасность
обморожения
1018.6 914.2
12 18.02 ЮЗ 2 50 км 10/0 2000 м
[As op]
-29.0 -31.3 80 -36 -36 опасность
обморожения
1018.5 914.6 -26.5
15 18.02 ЮЗ 3 50 км 3/0
[As op]
-36.2 -38.4 80 -47 -47 опасность
обморожения
1021.9 914.7
18 18.02 ЮЗ 2 50 км ясно -39.1 -41.1 81 -48 -48 опасность
обморожения
1023.7 915.0
21 18.02 З 1 50 км 8/3 1000 м
[Sc Ac trans]
-39.6 -41.6 81 -45 -45 опасность
обморожения
1024.2 915.2
00 19.02 З 1 50 км 8/4 1000 м
[Sc Ac trans Ci fib]
-36.0 -38.4 78 -41 -41 опасность
обморожения
1022.2 914.8 -40.8 30
03 19.02 ЮЗ 1 20 км слабый снег 10/5 1000 м
[Sc Ac trans Ci fib]
-27.8 -30.3 79 -32 -31 опасность
обморожения
1017.5 914.0
06 19.02 штиль 0 50 км {снег} 10/0
[Ac trans Ci fib]
-22.7 -26.7 70 -23 -22 1014.2 913.0
09 19.02 СЗ 1 50 км 4/0
[Ac trans]
-34.6 -36.1 86 -39 -39 опасность
обморожения
1020.5 913.9
12 19.02 З 1 50 км 5/0 2000 м
[Ac und]
-35.0 -36.7 84 -40 -40 опасность
обморожения
1021.3 914.4 -21.6 0.0
15 19.02 СЗ 3 10 км слабый снег 10/0
[Ac trans Cs]
-36.9 -38.5 85 -48 -48 опасность
обморожения
1022.1 914.3
18 19.02 СЗ 2 10 км слабый снег 10/0
[Ac trans Cs]
-31.7 -33.4 85 -39 -39 опасность
обморожения
1019.1 913.8
21 19.02 З 1 10 км слабый снег 10/0
[Cs]
-31.3 -33.0 85 -36 -36 опасность
обморожения
1018.6 913.5
00 20.02 З 1 20 км слабый снег 10/0 2000 м
[As op]
-31.0 -32.8 84 -35 -35 опасность
обморожения
1018.8 914.0 -39.3 0.2 30
03 20.02 З 1 50 км {снег} 10/0
[Cs]
-27.0 -29.4 80 -31 -30 опасность
обморожения
1017.2 914.1
06 20.02 штиль 0 50 км {снег} 6/0
[Cs]
-26.0 -29.8 70 -26 -25 1016.7 914.1
09 20.02 штиль 0 50 км 8/0
[As op]
-29.4 -31.7 80 -29 -29 1019.8 915.6
12 20.02 З 1 10 км слабый снег 10/0 2000 м
[As op]
-31.0 -32.8 84 -35 -35 опасность
обморожения
1021.6 916.5 -25.0 0.0
15 20.02 СЗ 1 10 км слабый снег 8/0
[As op]
-32.5 -34.2 85 -37 -37 опасность
обморожения
1022.7 916.9
18 20.02 СЗ 1 10 км слабый снег 5/0
[As op]
-35.4 -37.1 84 -40 -40 опасность
обморожения
1024.8 917.6
21 20.02 З 1 50 км {снег} 5/0
[As trans]
-38.0 -39.7 84 -43 -43 опасность
обморожения
1026.9 918.3
00 21.02 штиль 0 10 км слабый снег 10/0 2000 м
[As trans]
-35.4 -37.1 84 -35 -35 опасность
обморожения
1026.4 918.8 -39.0 0.4 30
03 21.02 З 1 20 км слабый снег 10/0
[Ac trans Ci fib]
-30.6 -32.9 80 -35 -34 опасность
обморожения
1024.1 918.8
06 21.02 штиль 0 20 км слабый снег 10/0 2000 м
[Ac trans Ci fib]
-27.4 -31.2 70 -27 -27 1022.2 918.3

 

Местоположение метеостанции Себян-Кюель (Якутия, Россия): широта 65.30 долгота 130.00 высота над уровнем моря 777 м.

В архиве по умолчанию представлена погода в Себян-Кюеле за последнюю неделю. Архивные данные за месяц целиком и за предыдущие месяцы, начиная с января 2011 года, Вы можете получить, выбрав интересующий диапазон дат из раскрывающегося списка и нажав кнопку "Ввод!".

Внимание! Время в таблицах - всемирное. Для получения местного времени необходимо прибавить поправку, которая в Себян-Кюеле равна 9 ч.

Смотрите также архив погоды в соседних городах и на ближайших метеорологических станциях:

Погода в Сеген-Кюели (Якутия, Россия) (145 км)
Погода в Екюччю (Якутия, Россия) (179 км)
Погода в Сангаре (Якутия, Россия) (195 км)
Погода в Батамае (Якутия, Россия) (200 км)
Погода в Сого-Хае (Якутия, Россия) (205 км)
Погода в Верхоянском Перевозе (Якутия, Россия) (240 км)
Погода в Иэме (Якутия, Россия) (269 км)
Погода в Бестяхской Звероферме (Якутия, Россия) (274 км)
Погода в Батагай-Алыте (Якутия, Россия) (276 км)
Погода в Намцах (Якутия, Россия) (288 км)

Пояснения к столбцам:

Ветер - указаны скорость ветра в м/с - средняя за 10 мин, порывы в срок и между сроками (в фигурных скобках) и направление, откуда дует ветер: С - северный, СВ - северо-восточный, В - восточный, ЮВ - юго-восточный, Ю - южный, ЮЗ - юго-западный, З - западный, СЗ - северо-западный.
Видимость - горизонтальная дальность видимости в метрах или километрах. При видимости от 1 до 10 км при отсутствии осадков обычно наблюдается дымка, при ухудшении видимости до 1 км и менее - туман. В сухую погоду видимость может ухудшаться дымом, пылью или мглою.
Явления - указаны атмосферные явления, наблюдавшиеся в срок или в последний час перед сроком; фигурными скобками обозначены явления, наблюдавшиеся между сроками (за 1-3 часа до срока); квадратными скобками обозначены град или гололедные отложения с указанием их диаметра в мм.
Облачность - указаны через наклонную черту общая и нижняя облачность в баллах и высота нижней границы облаков в метрах; квадратными скобками обозначены формы облаков: Ci - перистые, Cs - перисто-слоистые, Cc - перисто-кучевые, Ac - высококучевые, As - высокослоистые, Sc - слоисто-кучевые, Ns - слоисто-дождевые, Cu - кучевые, Cb - кучево-дождевые. Подробнее классификацию облаков см. в Атласе облаков (PDF).
T - Температура воздуха - температура, измеренная на высоте 2 м над землей.
Td - Температура точки росы - температура, при понижении до которой содержащийся в воздухе водяной пар достигнет насыщения.
f - Относительная влажность воздуха - влажноcть воздуха, измеренная на высоте 2 м над землей.
Te - Эффективная температура - температура, которую ощущает одетый по сезону человек в тени. Характеристика душности погоды. При расчете учитывается влияние влажности воздуха и скорости ветра на теплоощущения человека.
Tes - Эффективная температура на солнце - температура, которую ощущает человек, с поправкой на солнечный нагрев. Характеристика знойности погоды. Зависит от высоты солнца над горизонтом, облачности и скорости ветра. Ночью, в пасмурную погоду, а также при ветре 12 м/с и более поправка равна нулю.
P - Атмосферное давление - приведенное к уровню моря атмосферное давление.
Po - Атмосферное давление - измеренное на уровне метеостанции атмосферное давление.
Tmin - Минимальная температура - минимум температуры воздуха на высоте 2 м над землей.
Tmax - Максимальная температура - максимум температуры воздуха на высоте 2 м над землей.
R - Количество осадков - Количество выпавших осадков, мм. При наведении курсора мыши на число - период времени, за который выпало указанное количество осадков.
S - Снежный покров - Высота снежного покрова, см. При наведении курсора мыши на число - состояние снежного покрова и степень покрытия местности в баллах.